Tracking 30995 objects as of 7-Jul-2025
HD Live streaming from Space Station
objects crossing your sky now

THOR BURNER 2 R/B

Track THOR BURNER 2 R/B now!
10-day predictions


NORAD ID: 2940
Int'l Code: 1967-080B
Perigee: 814.5 km
Apogee: 869.9 km
Inclination: 98.5 °
Period: 101.6 minutes
Semi major axis: 7213 km
RCS: 1.65 m2 (large)
Launch date: August 23, 1967
Source: United States (US)
Launch site: AIR FORCE WESTERN TEST RANGE (AFWTR)

Note: This is a ROCKET BODY
Your satellite tracking list
FENGYUN 1C DEB
Track 1 satellite(s)




NASA's NSSDC Master Catalog

Two Line Element Set (TLE):
1 02940U 67080B   25187.53617638  .00000071  00000-0  55497-4 0  9990
2 02940  98.5455  22.7057 0038375 122.4597 238.0297 14.17132438986022
Source of the keplerian elements: AFSPC